This is the latest recevied weather packets stored in our database for station/object N4AR. If no packets are shown the sender has not sent any weather packets the latest 10 day(s).
| Time | Temp. | Humidity | Pressure | Rain* | Wind** | Luminosity | Snow |
|---|---|---|---|---|---|---|---|
| 1777839092 | 18.89° C | 26% | 1016.1 hPa | 0 mm | - | 691 W/m² | - |
| 1777838788 | 19.44° C | 26% | 1016.2 hPa | 0 mm | - | 707 W/m² | - |
| 1777838484 | 19.44° C | 25% | 1016.3 hPa | 0 mm | - | 719 W/m² | - |
| 1777838181 | 18.89° C | 26% | 1016.5 hPa | 0 mm | - | 734 W/m² | - |
| 1777837878 | 18.89° C | 27% | 1016.7 hPa | 0 mm | - | 745 W/m² | - |
| 1777837576 | 20° C | 25% | 1016.5 hPa | 0 mm | - | 762 W/m² | - |
| 1777837276 | 20° C | 27% | 1016.5 hPa | 0 mm | - | 771 W/m² | - |
| 1777836973 | 18.33° C | 28% | 1016.7 hPa | 0 mm | - | 783 W/m² | - |
| 1777836668 | 17.78° C | 28% | 1016.7 hPa | 0 mm | - | 795 W/m² | - |
| 1777836364 | 17.78° C | 28% | 1016.7 hPa | 0 mm | - | 803 W/m² | - |
| 1777836060 | 19.44° C | 25% | 1016.9 hPa | 0 mm | - | 777 W/m² | - |
| 1777835757 | 18.89° C | 27% | 1017.1 hPa | 0 mm | - | 825 W/m² | - |
| 1777835454 | 17.78° C | 26% | 1017.1 hPa | 0 mm | - | 835 W/m² | - |
| 1777835151 | 18.33° C | 25% | 1017.3 hPa | 0 mm | - | 846 W/m² | - |
| 1777834848 | 18.89° C | 27% | 1017.2 hPa | 0 mm | - | 855 W/m² | - |
| 1777834544 | 18.33° C | 28% | 1017.1 hPa | 0 mm | - | 862 W/m² | - |
| 1777834244 | 17.78° C | 27% | 1017 hPa | 0 mm | - | 869 W/m² | - |
| 1777833940 | 17.78° C | 28% | 1017.4 hPa | 0 mm | - | 876 W/m² | - |
| 1777833637 | 17.78° C | 28% | 1017.3 hPa | 0 mm | - | 883 W/m² | - |
| 1777833334 | 17.22° C | 28% | 1017.4 hPa | 0 mm | - | 889 W/m² | - |
| 1777833031 | 17.78° C | 28% | 1017.3 hPa | 0 mm | - | 896 W/m² | - |
| 1777832729 | 17.78° C | 27% | 1017.3 hPa | 0 mm | - | 899 W/m² | - |
| 1777832427 | 17.78° C | 27% | 1017.3 hPa | 0 mm | - | 907 W/m² | - |
| 1777832124 | 17.78° C | 25% | 1017.6 hPa | 0 mm | - | 912 W/m² | - |
| 1777831820 | 17.22° C | 28% | 1017.4 hPa | 0 mm | - | 913 W/m² | - |
* Rain latest hour (hover to see other rain measurements)
** Current wind speed in m/s (hover to see current wind gust speed)